Regional Weather Roundup
Issued by NWS Charleston, WV

Home | Current Version | Previous Version | Text Only | Print | Product List | Glossary Off
Versions: 1 2 3 4 5 6 7 8 9 10 11 12 13 14 15 16 17 18 19 20 21 22 23 24 25 26 27 28 29 30 31 32 33 34 35 36 37 38 39 40 41 42 43 44 45 46 47 48 49 50

000
ASUS41 KRLX 160810
RWRRLX
West Virginia Regional Weather Roundup
National Weather Service Charleston WV
300 AM EST SAT DEC 16 2017

Note: "fair" indicates few or no clouds below 12,000 feet with no
significant weather and/or obstructions to visibility.

WVZ003-160900-
Northern Panhandle of West Virginia

CITY           SKY/WX    TMP DP  RH WIND       PRES   REMARKS
WHEELING       CLOUDY    28  16  60 SW12G20   30.03R
$$

WVZ009-160900-
Northwest West Virginia

CITY           SKY/WX    TMP DP  RH WIND       PRES   REMARKS
PARKERSBURG    CLOUDY    30  20  66 S7        30.13R
$$

WVZ006-160900-
Western West Virginia

CITY           SKY/WX    TMP DP  RH WIND       PRES   REMARKS
HUNTINGTON     CLOUDY    33  20  58 SW7       30.14S
$$

WVZ015-160900-
West Central West Virginia

CITY           SKY/WX    TMP DP  RH WIND       PRES   REMARKS
CHARLESTON     CLOUDY    33  20  58 SW9       30.15R
$$

WVZ022-031-160900-
North Central West Virginia

CITY           SKY/WX    TMP DP  RH WIND       PRES   REMARKS
CLARKSBURG     CLOUDY    31  19  61 SW12      30.09R
MORGANTOWN     CLOUDY    29  15  56 SW9       30.07R
$$

WVZ025-035-042-045-160900-
Southern West Virginia

CITY           SKY/WX    TMP DP  RH WIND       PRES   REMARKS
BECKLEY        CLOUDY    27  17  66 NW9       30.08R
LOGAN          CLOUDY    30  21  69 CALM      30.13S
BLUEFIELD      CLOUDY    25  17  72 W13G26    30.07R
LEWISBURG      CLOUDY    29  18  62 NW8       30.07S
$$

WVZ047-160900-
Northern Mountains of West Virginia

CITY           SKY/WX    TMP DP  RH WIND       PRES   REMARKS
ELKINS         CLOUDY    27  17  66 W12G20    30.07R
$$

WVZ052-160900-
Eastern Panhandle of West Virginia

CITY           SKY/WX    TMP DP  RH WIND       PRES   REMARKS
MARTINSBURG    CLOUDY    32  14  47 W13       30.03R
PETERSBURG     CLOUDY    32  17  52 W21G31    30.04S
$$



USA.gov is the U.S. government's official web portal to all federal, state and local government web resources and services.